Time,TemperatureF,DewpointF,PressureIn,WindDirection,WindDirectionDegrees,WindSpeedMPH,WindSpeedGustMPH,Humidity,HourlyPrecipIn,Conditions,Clouds,dailyrainin,SoftwareType,DateUTC
2013-02-08 00:01:00,56.3,54.6,29.93,NNE,26,0.0,0.0,94,0.00,,,0.00,WeatherTracker,2013-02-08 06:01:00,
2013-02-08 00:06:00,56.3,54.6,29.93,NNE,26,0.0,0.0,94,0.00,,,0.00,WeatherTracker,2013-02-08 06:06:00,
2013-02-08 00:11:00,56.2,54.5,29.93,NNE,26,0.0,0.0,94,0.00,,,0.00,WeatherTracker,2013-02-08 06:11:00,
2013-02-08 00:16:00,56.2,54.8,29.93,NNE,26,0.0,0.0,95,0.00,,,0.00,WeatherTracker,2013-02-08 06:16:00,
2013-02-08 00:21:00,56.2,54.8,29.93,NNE,26,0.0,0.0,95,0.00,,,0.00,WeatherTracker,2013-02-08 06:21:00,
2013-02-08 00:27:00,56.2,54.8,29.92,NNE,26,0.0,0.0,95,0.00,,,0.00,WeatherTracker,2013-02-08 06:27:00,
2013-02-08 00:32:00,56.2,54.5,29.92,NNE,26,0.0,0.0,94,0.00,,,0.00,WeatherTracker,2013-02-08 06:32:00,
2013-02-08 00:37:00,56.2,54.5,29.92,NNE,26,0.0,0.0,94,0.00,,,0.00,WeatherTracker,2013-02-08 06:37:00,
2013-02-08 00:42:00,56.2,54.5,29.93,NNE,26,0.0,0.0,94,0.00,,,0.00,WeatherTracker,2013-02-08 06:42:00,
2013-02-08 00:47:00,56.2,54.5,29.93,NNE,26,0.0,0.0,94,0.00,,,0.00,WeatherTracker,2013-02-08 06:47:00,
2013-02-08 00:52:00,56.2,54.5,29.93,NNE,26,0.0,0.0,94,0.00,,,0.00,WeatherTracker,2013-02-08 06:52:00,
2013-02-08 00:57:00,56.2,54.5,29.93,NNE,26,0.0,0.0,94,0.00,,,0.00,WeatherTracker,2013-02-08 06:57:00,
2013-02-08 01:02:00,56.1,54.4,29.93,NNE,26,0.0,0.0,94,0.00,,,0.00,WeatherTracker,2013-02-08 07:02:00,
2013-02-08 01:07:00,56.2,54.5,29.93,NNE,26,0.0,0.0,94,0.00,,,0.00,WeatherTracker,2013-02-08 07:07:00,
2013-02-08 01:12:00,56.2,54.8,29.93,NNE,26,0.0,0.0,95,0.00,,,0.00,WeatherTracker,2013-02-08 07:12:00,
2013-02-08 01:17:00,56.2,54.8,29.93,NNE,26,0.0,0.0,95,0.00,,,0.00,WeatherTracker,2013-02-08 07:17:00,
2013-02-08 01:22:00,56.2,54.8,29.93,NNE,26,0.0,0.0,95,0.00,,,0.00,WeatherTracker,2013-02-08 07:22:00,
2013-02-08 01:27:00,56.2,54.8,29.93,NNE,26,0.0,0.0,95,0.00,,,0.00,WeatherTracker,2013-02-08 07:27:00,
2013-02-08 01:33:00,56.2,54.8,29.93,NNE,26,0.0,0.0,95,0.00,,,0.00,WeatherTracker,2013-02-08 07:33:00,
2013-02-08 01:38:00,56.3,54.9,29.93,NNE,26,0.0,0.0,95,0.00,,,0.00,WeatherTracker,2013-02-08 07:38:00,
2013-02-08 01:43:00,56.2,54.8,29.93,NNE,26,0.0,0.0,95,0.00,,,0.00,WeatherTracker,2013-02-08 07:43:00,
2013-02-08 01:48:00,56.2,54.8,29.93,NNE,26,0.0,0.0,95,0.00,,,0.00,WeatherTracker,2013-02-08 07:48:00,
2013-02-08 01:53:00,56.1,54.7,29.93,NNE,26,2.0,4.0,95,0.00,,,0.00,WeatherTracker,2013-02-08 07:53:00,
2013-02-08 01:58:00,56.1,54.7,29.94,NNE,26,0.0,4.0,95,0.00,,,0.00,WeatherTracker,2013-02-08 07:58:00,
2013-02-08 02:03:00,56.0,54.6,29.94,NNE,26,2.0,4.0,95,0.00,,,0.00,WeatherTracker,2013-02-08 08:03:00,
2013-02-08 02:08:00,56.0,54.6,29.94,NNE,26,0.0,3.0,95,0.00,,,0.00,WeatherTracker,2013-02-08 08:08:00,
2013-02-08 02:13:00,55.9,54.5,29.94,NNE,26,2.0,3.0,95,0.00,,,0.00,WeatherTracker,2013-02-08 08:13:00,
2013-02-08 02:18:00,55.8,54.4,29.94,NNE,26,3.0,4.0,95,0.00,,,0.00,WeatherTracker,2013-02-08 08:18:00,
2013-02-08 02:23:00,55.7,54.3,29.94,NNE,26,2.0,4.0,95,0.00,,,0.00,WeatherTracker,2013-02-08 08:23:00,
2013-02-08 02:28:00,55.7,54.3,29.94,NNE,27,2.0,4.0,95,0.00,,,0.00,WeatherTracker,2013-02-08 08:28:00,
2013-02-08 02:33:00,55.5,54.1,29.94,NNE,27,1.0,4.0,95,0.00,,,0.00,WeatherTracker,2013-02-08 08:33:00,
2013-02-08 02:38:00,55.5,54.1,29.94,NNE,27,0.0,3.0,95,0.00,,,0.00,WeatherTracker,2013-02-08 08:38:00,
2013-02-08 02:43:00,55.5,54.1,29.93,NNE,27,0.0,3.0,95,0.00,,,0.00,WeatherTracker,2013-02-08 08:43:00,
2013-02-08 02:49:00,55.4,54.0,29.94,ENE,67,1.0,4.0,95,0.00,,,0.00,WeatherTracker,2013-02-08 08:49:00,
2013-02-08 02:54:00,55.4,54.0,29.94,NE,46,2.0,4.0,95,0.00,,,0.00,WeatherTracker,2013-02-08 08:54:00,
2013-02-08 02:59:00,55.4,54.3,29.94,NNE,20,4.0,4.0,96,0.00,,,0.00,WeatherTracker,2013-02-08 08:59:00,
2013-02-08 03:04:00,55.4,54.3,29.94,NNE,20,0.0,4.0,96,0.00,,,0.00,WeatherTracker,2013-02-08 09:04:00,
2013-02-08 03:09:00,55.3,54.2,29.94,NNE,20,1.0,4.0,96,0.00,,,0.00,WeatherTracker,2013-02-08 09:09:00,
2013-02-08 03:14:00,55.3,54.2,29.94,NE,34,2.0,4.0,96,0.00,,,0.00,WeatherTracker,2013-02-08 09:14:00,
2013-02-08 03:19:00,55.2,54.1,29.94,NE,34,3.0,4.0,96,0.00,,,0.00,WeatherTracker,2013-02-08 09:19:00,
2013-02-08 03:24:00,55.2,54.1,29.95,NE,34,1.0,4.0,96,0.00,,,0.00,WeatherTracker,2013-02-08 09:24:00,
2013-02-08 03:29:00,55.2,54.1,29.95,NE,34,1.0,3.0,96,0.00,,,0.00,WeatherTracker,2013-02-08 09:29:00,
2013-02-08 03:34:00,55.2,54.1,29.95,NE,34,1.0,2.0,96,0.00,,,0.00,WeatherTracker,2013-02-08 09:34:00,
2013-02-08 03:39:00,55.2,54.1,29.95,NE,34,0.0,3.0,96,0.00,,,0.00,WeatherTracker,2013-02-08 09:39:00,
2013-02-08 03:44:00,55.2,54.1,29.95,NE,34,0.0,3.0,96,0.00,,,0.00,WeatherTracker,2013-02-08 09:44:00,
2013-02-08 03:49:00,55.1,54.0,29.95,NE,34,1.0,3.0,96,0.00,,,0.00,WeatherTracker,2013-02-08 09:49:00,
2013-02-08 03:54:00,55.0,53.9,29.95,NE,34,0.0,3.0,96,0.00,,,0.00,WeatherTracker,2013-02-08 09:54:00,
2013-02-08 03:59:00,55.0,53.9,29.95,NE,34,0.0,3.0,96,0.00,,,0.00,WeatherTracker,2013-02-08 09:59:00,
2013-02-08 04:04:00,55.0,53.9,29.95,NE,34,0.0,0.0,96,0.00,,,0.00,WeatherTracker,2013-02-08 10:04:00,
2013-02-08 04:09:00,55.0,53.9,29.95,NE,34,1.0,3.0,96,0.00,,,0.00,WeatherTracker,2013-02-08 10:09:00,
2013-02-08 04:14:00,55.0,53.9,29.95,NE,34,0.0,3.0,96,0.00,,,0.00,WeatherTracker,2013-02-08 10:14:00,
2013-02-08 04:19:00,55.0,53.9,29.95,NE,34,0.0,2.0,96,0.00,,,0.00,WeatherTracker,2013-02-08 10:19:00,
2013-02-08 04:24:00,55.0,53.9,29.95,NE,34,1.0,3.0,96,0.00,,,0.00,WeatherTracker,2013-02-08 10:24:00,
2013-02-08 04:29:00,54.9,53.8,29.95,NE,34,2.0,4.0,96,0.00,,,0.00,WeatherTracker,2013-02-08 10:29:00,
2013-02-08 04:34:00,54.8,53.7,29.96,NE,34,1.0,4.0,96,0.00,,,0.00,WeatherTracker,2013-02-08 10:34:00,
2013-02-08 04:39:00,54.8,53.7,29.96,NE,34,2.0,4.0,96,0.00,,,0.00,WeatherTracker,2013-02-08 10:39:00,
2013-02-08 04:45:00,54.8,53.7,29.96,NE,34,2.0,4.0,96,0.00,,,0.00,WeatherTracker,2013-02-08 10:45:00,
2013-02-08 04:50:00,54.8,53.7,29.96,NE,34,2.0,3.0,96,0.00,,,0.00,WeatherTracker,2013-02-08 10:50:00,
2013-02-08 04:55:00,54.8,53.7,29.96,NNE,19,3.0,4.0,96,0.00,,,0.00,WeatherTracker,2013-02-08 10:55:00,
2013-02-08 05:00:00,54.7,53.6,29.96,NE,44,2.0,4.0,96,0.00,,,0.00,WeatherTracker,2013-02-08 11:00:00,
2013-02-08 05:05:00,54.6,53.5,29.96,NE,44,2.0,4.0,96,0.00,,,0.00,WeatherTracker,2013-02-08 11:05:00,
2013-02-08 05:10:00,54.6,53.5,29.97,NNE,30,2.0,5.0,96,0.00,,,0.00,WeatherTracker,2013-02-08 11:10:00,
2013-02-08 05:15:00,54.6,53.5,29.97,NNE,26,3.0,5.0,96,0.00,,,0.00,WeatherTracker,2013-02-08 11:15:00,
2013-02-08 05:20:00,54.6,53.5,29.97,North,5,2.0,5.0,96,0.00,,,0.00,WeatherTracker,2013-02-08 11:20:00,
2013-02-08 05:25:00,54.7,53.6,29.98,North,5,2.0,5.0,96,0.00,,,0.00,WeatherTracker,2013-02-08 11:25:00,
2013-02-08 05:30:00,54.7,53.6,29.98,North,5,4.0,5.0,96,0.00,,,0.00,WeatherTracker,2013-02-08 11:30:00,
2013-02-08 05:35:00,54.6,53.5,29.98,North,5,3.0,5.0,96,0.00,,,0.00,WeatherTracker,2013-02-08 11:35:00,
2013-02-08 05:40:00,54.6,53.5,29.98,North,355,3.0,7.0,96,0.00,,,0.00,WeatherTracker,2013-02-08 11:40:00,
2013-02-08 05:45:00,54.5,53.7,29.98,NNW,334,2.0,7.0,97,0.00,,,0.00,WeatherTracker,2013-02-08 11:45:00,
2013-02-08 05:50:00,54.5,53.7,29.99,North,355,5.0,7.0,97,0.00,,,0.00,WeatherTracker,2013-02-08 11:50:00,
2013-02-08 05:55:00,54.4,53.6,29.99,North,355,3.0,6.0,97,0.00,,,0.00,WeatherTracker,2013-02-08 11:55:00,
2013-02-08 06:00:00,54.4,53.6,29.99,North,355,4.0,6.0,97,0.00,,,0.00,WeatherTracker,2013-02-08 12:00:00,
2013-02-08 06:05:00,54.4,53.6,29.99,North,355,2.0,5.0,97,0.00,,,0.00,WeatherTracker,2013-02-08 12:05:00,
2013-02-08 06:11:00,54.4,53.6,30.00,North,355,4.0,5.0,97,0.00,,,0.00,WeatherTracker,2013-02-08 12:11:00,
2013-02-08 06:16:00,54.4,53.6,30.00,North,355,3.0,4.0,97,0.00,,,0.00,WeatherTracker,2013-02-08 12:16:00,
2013-02-08 06:21:00,54.4,53.6,30.00,North,355,3.0,4.0,97,0.00,,,0.00,WeatherTracker,2013-02-08 12:21:00,
2013-02-08 06:26:00,54.4,53.6,30.00,North,355,1.0,4.0,97,0.00,,,0.00,WeatherTracker,2013-02-08 12:26:00,
2013-02-08 06:31:00,54.4,53.6,30.00,North,355,0.0,4.0,97,0.00,,,0.00,WeatherTracker,2013-02-08 12:31:00,
2013-02-08 06:36:00,54.3,53.5,30.00,North,355,2.0,3.0,97,0.00,,,0.00,WeatherTracker,2013-02-08 12:36:00,
2013-02-08 06:41:00,54.3,53.5,30.00,North,355,1.0,3.0,97,0.00,,,0.00,WeatherTracker,2013-02-08 12:41:00,
2013-02-08 06:46:00,54.3,53.5,30.00,North,355,2.0,3.0,97,0.00,,,0.00,WeatherTracker,2013-02-08 12:46:00,
2013-02-08 06:51:00,54.3,53.5,30.00,North,355,3.0,3.0,97,0.00,,,0.00,WeatherTracker,2013-02-08 12:51:00,
2013-02-08 06:56:00,54.3,53.5,30.00,North,355,0.0,3.0,97,0.00,,,0.00,WeatherTracker,2013-02-08 12:56:00,
2013-02-08 07:01:00,54.3,53.5,30.00,North,355,2.0,4.0,97,0.00,,,0.00,WeatherTracker,2013-02-08 13:01:00,
2013-02-08 07:06:00,54.3,53.5,30.00,North,355,2.0,4.0,97,0.00,,,0.00,WeatherTracker,2013-02-08 13:06:00,
2013-02-08 07:11:00,54.3,53.5,30.01,North,355,3.0,4.0,97,0.00,,,0.00,WeatherTracker,2013-02-08 13:11:00,
2013-02-08 07:16:00,54.3,53.5,30.00,North,355,2.0,3.0,97,0.00,,,0.00,WeatherTracker,2013-02-08 13:16:00,
2013-02-08 07:21:00,54.4,53.6,30.01,North,355,2.0,3.0,97,0.00,,,0.00,WeatherTracker,2013-02-08 13:21:00,
2013-02-08 07:26:00,54.4,53.6,30.01,North,355,2.0,3.0,97,0.00,,,0.00,WeatherTracker,2013-02-08 13:26:00,
2013-02-08 07:32:00,54.5,53.7,30.01,North,355,1.0,3.0,97,0.00,,,0.00,WeatherTracker,2013-02-08 13:32:00,
2013-02-08 07:37:00,54.4,53.6,30.01,North,355,0.0,3.0,97,0.00,,,0.00,WeatherTracker,2013-02-08 13:37:00,
2013-02-08 07:42:00,54.5,53.7,30.02,North,355,2.0,3.0,97,0.00,,,0.00,WeatherTracker,2013-02-08 13:42:00,
2013-02-08 07:47:00,54.5,53.7,30.02,North,355,0.0,2.0,97,0.00,,,0.00,WeatherTracker,2013-02-08 13:47:00,
2013-02-08 07:52:00,54.5,53.7,30.02,North,355,0.0,2.0,97,0.00,,,0.00,WeatherTracker,2013-02-08 13:52:00,
2013-02-08 07:57:00,54.6,53.8,30.02,North,355,0.0,1.0,97,0.00,,,0.00,WeatherTracker,2013-02-08 13:57:00,
2013-02-08 08:02:00,54.7,53.9,30.01,North,355,0.0,0.0,97,0.00,,,0.00,WeatherTracker,2013-02-08 14:02:00,
2013-02-08 08:07:00,54.8,54.0,30.01,North,355,0.0,0.0,97,0.00,,,0.00,WeatherTracker,2013-02-08 14:07:00,
2013-02-08 08:12:00,54.8,54.0,30.01,North,355,0.0,0.0,97,0.00,,,0.00,WeatherTracker,2013-02-08 14:12:00,
2013-02-08 08:17:00,54.9,54.1,30.02,North,355,0.0,0.0,97,0.00,,,0.00,WeatherTracker,2013-02-08 14:17:00,
2013-02-08 08:22:00,55.0,54.2,30.02,North,355,0.0,0.0,97,0.00,,,0.00,WeatherTracker,2013-02-08 14:22:00,
2013-02-08 08:27:00,55.2,54.4,30.02,North,355,0.0,0.0,97,0.00,,,0.00,WeatherTracker,2013-02-08 14:27:00,
2013-02-08 08:32:00,55.3,54.5,30.02,North,355,0.0,0.0,97,0.00,,,0.00,WeatherTracker,2013-02-08 14:32:00,
2013-02-08 08:37:00,55.4,54.6,30.02,North,355,0.0,0.0,97,0.00,,,0.00,WeatherTracker,2013-02-08 14:37:00,
2013-02-08 08:42:00,55.4,54.6,30.02,North,355,2.0,3.0,97,0.00,,,0.00,WeatherTracker,2013-02-08 14:42:00,
2013-02-08 08:47:00,55.5,54.7,30.02,WSW,238,2.0,3.0,97,0.00,,,0.00,WeatherTracker,2013-02-08 14:47:00,
2013-02-08 08:52:00,55.5,54.7,30.02,SW,222,1.0,5.0,97,0.00,,,0.00,WeatherTracker,2013-02-08 14:52:00,
2013-02-08 08:58:00,55.6,54.8,30.02,SW,222,0.0,5.0,97,0.00,,,0.00,WeatherTracker,2013-02-08 14:58:00,
2013-02-08 09:03:00,55.9,55.1,30.02,SW,223,3.0,3.0,97,0.00,,,0.00,WeatherTracker,2013-02-08 15:03:00,
2013-02-08 09:08:00,56.1,55.3,30.03,West,270,2.0,5.0,97,0.00,,,0.00,WeatherTracker,2013-02-08 15:08:00,
2013-02-08 09:13:00,56.2,55.4,30.03,West,263,2.0,5.0,97,0.00,,,0.00,WeatherTracker,2013-02-08 15:13:00,
2013-02-08 09:18:00,56.4,55.3,30.03,WSW,247,1.0,5.0,96,0.00,,,0.00,WeatherTracker,2013-02-08 15:18:00,
2013-02-08 09:23:00,56.6,55.5,30.03,West,273,2.0,5.0,96,0.00,,,0.00,WeatherTracker,2013-02-08 15:23:00,
2013-02-08 09:28:00,56.8,55.4,30.04,West,266,3.0,5.0,95,0.00,,,0.00,WeatherTracker,2013-02-08 15:28:00,
2013-02-08 09:33:00,56.9,55.5,30.04,NW,307,2.0,5.0,95,0.00,,,0.00,WeatherTracker,2013-02-08 15:33:00,
2013-02-08 09:38:00,57.3,55.6,30.04,WNW,282,2.0,5.0,94,0.00,,,0.00,WeatherTracker,2013-02-08 15:38:00,
2013-02-08 09:43:00,57.7,55.7,30.04,West,265,3.0,5.0,93,0.00,,,0.00,WeatherTracker,2013-02-08 15:43:00,
2013-02-08 09:48:00,58.1,55.8,30.05,WNW,282,0.0,6.0,92,0.00,,,0.00,WeatherTracker,2013-02-08 15:48:00,
2013-02-08 09:53:00,58.3,55.7,30.05,NW,310,2.0,7.0,91,0.00,,,0.00,WeatherTracker,2013-02-08 15:53:00,
2013-02-08 09:58:00,58.3,55.4,30.05,NW,322,5.0,7.0,90,0.00,,,0.00,WeatherTracker,2013-02-08 15:58:00,
2013-02-08 10:03:00,58.4,55.5,30.05,NW,317,3.0,7.0,90,0.00,,,0.00,WeatherTracker,2013-02-08 16:03:00,
2013-02-08 10:08:00,58.9,55.7,30.05,West,269,0.0,6.0,89,0.00,,,0.00,WeatherTracker,2013-02-08 16:08:00,
2013-02-08 10:13:00,60.2,56.6,30.05,NW,304,3.0,5.0,88,0.00,,,0.00,WeatherTracker,2013-02-08 16:13:00,
2013-02-08 10:18:00,60.6,56.4,30.05,North,355,3.0,5.0,86,0.00,,,0.00,WeatherTracker,2013-02-08 16:18:00,
2013-02-08 10:24:00,60.7,56.2,30.06,North,355,3.0,4.0,85,0.00,,,0.00,WeatherTracker,2013-02-08 16:24:00,
2013-02-08 10:29:00,60.7,56.2,30.05,North,360,0.0,6.0,85,0.00,,,0.00,WeatherTracker,2013-02-08 16:29:00,
2013-02-08 10:34:00,61.2,56.3,30.05,North,360,1.0,6.0,84,0.00,,,0.00,WeatherTracker,2013-02-08 16:34:00,
2013-02-08 10:39:00,61.4,56.5,30.05,North,360,0.0,4.0,84,0.00,,,0.00,WeatherTracker,2013-02-08 16:39:00,
2013-02-08 10:44:00,61.6,56.4,30.05,North,360,0.0,4.0,83,0.00,,,0.00,WeatherTracker,2013-02-08 16:44:00,
2013-02-08 10:49:00,61.8,56.6,30.05,North,360,0.0,2.0,83,0.00,,,0.00,WeatherTracker,2013-02-08 16:49:00,
2013-02-08 10:54:00,62.0,56.4,30.05,WSW,257,0.0,3.0,82,0.00,,,0.00,WeatherTracker,2013-02-08 16:54:00,
2013-02-08 10:59:00,62.3,56.7,30.05,WSW,257,0.0,3.0,82,0.00,,,0.00,WeatherTracker,2013-02-08 16:59:00,
2013-02-08 11:04:00,62.6,56.7,30.04,SW,225,2.0,4.0,81,0.00,,,0.00,WeatherTracker,2013-02-08 17:04:00,
2013-02-08 11:09:00,63.1,57.2,30.04,SW,225,1.0,4.0,81,0.00,,,0.00,WeatherTracker,2013-02-08 17:09:00,
2013-02-08 11:14:00,63.3,57.0,30.04,West,271,0.0,3.0,80,0.00,,,0.00,WeatherTracker,2013-02-08 17:14:00,
2013-02-08 11:19:00,63.4,57.1,30.04,West,271,0.0,3.0,80,0.00,,,0.00,WeatherTracker,2013-02-08 17:19:00,
2013-02-08 11:24:00,64.4,57.7,30.04,WNW,290,4.0,0.0,79,0.00,,,0.00,WeatherTracker,2013-02-08 17:24:00,
2013-02-08 11:29:00,64.8,57.8,30.03,WNW,300,2.0,11.0,78,0.00,,,0.00,WeatherTracker,2013-02-08 17:29:00,
2013-02-08 11:34:00,64.8,58.1,30.03,West,275,2.0,11.0,79,0.00,,,0.00,WeatherTracker,2013-02-08 17:34:00,
2013-02-08 11:39:00,64.7,57.7,30.03,NNW,327,2.0,11.0,78,0.00,,,0.00,WeatherTracker,2013-02-08 17:39:00,
2013-02-08 11:44:00,64.9,58.2,30.03,WSW,246,3.0,5.0,79,0.00,,,0.00,WeatherTracker,2013-02-08 17:44:00,
2013-02-08 11:49:00,65.1,57.7,30.03,West,259,1.0,6.0,77,0.00,,,0.00,WeatherTracker,2013-02-08 17:49:00,
2013-02-08 11:54:00,65.6,58.2,30.03,NW,318,2.0,6.0,77,0.00,,,0.00,WeatherTracker,2013-02-08 17:54:00,
2013-02-08 11:59:00,65.9,58.5,30.02,NW,316,4.0,8.0,77,0.00,,,0.00,WeatherTracker,2013-02-08 17:59:00,
2013-02-08 12:04:00,65.6,58.2,30.02,NNW,327,5.0,9.0,77,0.00,,,0.00,WeatherTracker,2013-02-08 18:04:00,
2013-02-08 12:10:00,65.6,58.5,30.02,WNW,285,3.0,9.0,78,0.00,,,0.00,WeatherTracker,2013-02-08 18:10:00,
2013-02-08 12:15:00,65.6,58.2,30.02,NNE,14,6.0,10.0,77,0.00,,,0.00,WeatherTracker,2013-02-08 18:15:00,
2013-02-08 12:20:00,65.6,58.5,30.02,NNW,327,12.0,12.0,78,0.00,,,0.00,WeatherTracker,2013-02-08 18:20:00,
2013-02-08 12:25:00,65.4,58.4,30.02,WNW,286,4.0,13.0,78,0.00,,,0.00,WeatherTracker,2013-02-08 18:25:00,
2013-02-08 12:30:00,65.6,58.5,30.02,NNE,17,5.0,13.0,78,0.00,,,0.00,WeatherTracker,2013-02-08 18:30:00,
2013-02-08 12:35:00,65.4,58.4,30.02,NW,309,3.0,9.0,78,0.00,,,0.00,WeatherTracker,2013-02-08 18:35:00,
2013-02-08 12:40:00,65.4,58.7,30.02,NNW,336,5.0,9.0,79,0.00,,,0.00,WeatherTracker,2013-02-08 18:40:00,
2013-02-08 12:45:00,65.3,58.3,30.02,NW,325,4.0,8.0,78,0.00,,,0.00,WeatherTracker,2013-02-08 18:45:00,
2013-02-08 12:50:00,66.3,59.2,30.02,NNW,330,7.0,7.0,78,0.00,,,0.00,WeatherTracker,2013-02-08 18:50:00,
2013-02-08 12:55:00,66.8,59.0,30.01,West,270,1.0,8.0,76,0.00,,,0.00,WeatherTracker,2013-02-08 18:55:00,
2013-02-08 13:00:00,66.7,58.9,30.01,WNW,293,3.0,8.0,76,0.00,,,0.00,WeatherTracker,2013-02-08 19:00:00,
2013-02-08 13:05:00,66.5,58.7,30.01,NW,319,3.0,6.0,76,0.00,,,0.00,WeatherTracker,2013-02-08 19:05:00,
2013-02-08 13:10:00,66.1,58.7,30.01,NNW,330,5.0,8.0,77,0.00,,,0.00,WeatherTracker,2013-02-08 19:10:00,
2013-02-08 13:15:00,67.0,59.5,30.01,WNW,292,5.0,8.0,77,0.00,,,0.00,WeatherTracker,2013-02-08 19:15:00,
2013-02-08 13:20:00,68.1,60.6,30.01,WNW,288,4.0,7.0,77,0.00,,,0.00,WeatherTracker,2013-02-08 19:20:00,
2013-02-08 13:25:00,68.3,58.9,30.01,NNW,342,9.0,11.0,72,0.00,,,0.00,WeatherTracker,2013-02-08 19:25:00,
2013-02-08 13:30:00,67.4,58.4,30.01,NW,309,8.0,11.0,73,0.00,,,0.00,WeatherTracker,2013-02-08 19:30:00,
2013-02-08 13:35:00,66.7,58.1,30.01,NW,318,6.0,13.0,74,0.00,,,0.00,WeatherTracker,2013-02-08 19:35:00,
2013-02-08 13:41:00,66.6,58.0,30.02,NW,309,7.0,13.0,74,0.00,,,0.00,WeatherTracker,2013-02-08 19:41:00,
2013-02-08 13:46:00,66.7,58.5,30.01,NW,305,5.0,11.0,75,0.00,,,0.00,WeatherTracker,2013-02-08 19:46:00,
2013-02-08 13:51:00,67.0,59.2,30.01,West,281,5.0,10.0,76,0.00,,,0.00,WeatherTracker,2013-02-08 19:51:00,
2013-02-08 13:56:00,67.4,58.8,30.01,NW,313,5.0,9.0,74,0.00,,,0.00,WeatherTracker,2013-02-08 19:56:00,
2013-02-08 14:01:00,67.4,58.8,30.01,NNW,344,3.0,8.0,74,0.00,,,0.00,WeatherTracker,2013-02-08 20:01:00,
2013-02-08 14:06:00,67.6,58.6,30.01,NW,323,5.0,8.0,73,0.00,,,0.00,WeatherTracker,2013-02-08 20:06:00,
2013-02-08 14:11:00,68.1,59.5,30.01,North,5,9.0,13.0,74,0.00,,,0.00,WeatherTracker,2013-02-08 20:11:00,
2013-02-08 14:16:00,68.4,59.4,30.01,WNW,286,5.0,13.0,73,0.00,,,0.00,WeatherTracker,2013-02-08 20:16:00,
2013-02-08 14:21:00,68.2,58.0,30.01,WNW,289,7.0,13.0,70,0.00,,,0.00,WeatherTracker,2013-02-08 20:21:00,
2013-02-08 14:26:00,67.9,58.5,30.00,NW,324,6.0,12.0,72,0.00,,,0.00,WeatherTracker,2013-02-08 20:26:00,
2013-02-08 14:31:00,68.2,58.8,30.00,NW,323,1.0,12.0,72,0.00,,,0.00,WeatherTracker,2013-02-08 20:31:00,
2013-02-08 14:36:00,68.7,58.5,30.00,NW,315,6.0,8.0,70,0.00,,,0.00,WeatherTracker,2013-02-08 20:36:00,
2013-02-08 14:41:00,68.6,58.0,30.00,North,355,5.0,9.0,69,0.00,,,0.00,WeatherTracker,2013-02-08 20:41:00,
2013-02-08 14:46:00,68.1,58.3,30.00,NNW,335,8.0,10.0,71,0.00,,,0.00,WeatherTracker,2013-02-08 20:46:00,
2013-02-08 14:51:00,67.5,57.8,30.00,NNW,327,2.0,10.0,71,0.00,,,0.00,WeatherTracker,2013-02-08 20:51:00,
2013-02-08 14:56:00,67.0,56.9,30.00,NNW,345,7.0,10.0,70,0.00,,,0.00,WeatherTracker,2013-02-08 20:56:00,
2013-02-08 15:01:00,66.6,57.3,30.01,NW,325,6.0,10.0,72,0.00,,,0.00,WeatherTracker,2013-02-08 21:01:00,
2013-02-08 15:06:00,66.7,57.4,30.01,NW,318,3.0,8.0,72,0.00,,,0.00,WeatherTracker,2013-02-08 21:06:00,
2013-02-08 15:11:00,67.3,57.2,30.01,WNW,300,5.0,10.0,70,0.00,,,0.00,WeatherTracker,2013-02-08 21:11:00,
2013-02-08 15:16:00,68.1,57.5,30.01,NNW,337,5.0,10.0,69,0.00,,,0.00,WeatherTracker,2013-02-08 21:16:00,
2013-02-08 15:21:00,68.7,57.7,30.01,NW,316,3.0,11.0,68,0.00,,,0.00,WeatherTracker,2013-02-08 21:21:00,
2013-02-08 15:26:00,68.7,57.3,30.01,SW,214,4.0,12.0,67,0.00,,,0.00,WeatherTracker,2013-02-08 21:26:00,
2013-02-08 15:31:00,68.4,57.4,30.01,NNW,342,3.0,12.0,68,0.00,,,0.00,WeatherTracker,2013-02-08 21:31:00,
2013-02-08 15:36:00,68.0,57.4,30.01,NNW,331,6.0,10.0,69,0.00,,,0.00,WeatherTracker,2013-02-08 21:36:00,
2013-02-08 15:41:00,67.7,57.6,30.01,NW,310,3.0,10.0,70,0.00,,,0.00,WeatherTracker,2013-02-08 21:41:00,
2013-02-08 15:46:00,67.6,57.1,30.01,NW,318,4.0,9.0,69,0.00,,,0.00,WeatherTracker,2013-02-08 21:46:00,
2013-02-08 15:52:00,67.5,57.0,30.01,WNW,300,3.0,9.0,69,0.00,,,0.00,WeatherTracker,2013-02-08 21:52:00,
2013-02-08 15:57:00,67.2,56.7,30.01,NNW,332,4.0,9.0,69,0.00,,,0.00,WeatherTracker,2013-02-08 21:57:00,
2013-02-08 16:02:00,67.0,56.9,30.02,NW,319,3.0,7.0,70,0.00,,,0.00,WeatherTracker,2013-02-08 22:02:00,
2013-02-08 16:07:00,66.8,57.1,30.02,NNW,343,4.0,7.0,71,0.00,,,0.00,WeatherTracker,2013-02-08 22:07:00,
2013-02-08 16:12:00,66.4,56.3,30.02,North,5,16.0,22.0,70,0.00,,,0.00,WeatherTracker,2013-02-08 22:12:00,
2013-02-08 16:17:00,64.6,55.0,30.03,NNW,332,13.0,28.0,71,0.00,,,0.00,WeatherTracker,2013-02-08 22:17:00,
2013-02-08 16:22:00,62.9,55.9,30.04,NNW,333,7.0,28.0,78,0.04,,,0.04,WeatherTracker,2013-02-08 22:22:00,
2013-02-08 16:27:00,61.1,56.2,30.04,NNW,341,4.0,18.0,84,0.05,,,0.05,WeatherTracker,2013-02-08 22:27:00,
2013-02-08 16:32:00,60.2,56.3,30.04,North,351,6.0,12.0,87,0.05,,,0.05,WeatherTracker,2013-02-08 22:32:00,
2013-02-08 16:37:00,59.9,56.6,30.04,North,350,3.0,8.0,89,0.05,,,0.05,WeatherTracker,2013-02-08 22:37:00,
2013-02-08 16:42:00,59.8,56.9,30.03,NNW,346,4.0,8.0,90,0.05,,,0.05,WeatherTracker,2013-02-08 22:42:00,
2013-02-08 16:47:00,59.7,56.8,30.03,NNW,346,5.0,6.0,90,0.05,,,0.05,WeatherTracker,2013-02-08 22:47:00,
2013-02-08 16:52:00,59.6,56.7,30.04,NW,324,6.0,6.0,90,0.05,,,0.05,WeatherTracker,2013-02-08 22:52:00,
2013-02-08 16:57:00,59.4,56.5,30.04,NNW,327,2.0,7.0,90,0.05,,,0.05,WeatherTracker,2013-02-08 22:57:00,
2013-02-08 17:02:00,59.3,56.4,30.04,NNW,327,3.0,7.0,90,0.05,,,0.05,WeatherTracker,2013-02-08 23:02:00,
2013-02-08 17:08:00,59.2,56.6,30.04,NNW,331,3.0,5.0,91,0.05,,,0.05,WeatherTracker,2013-02-08 23:08:00,
2013-02-08 17:13:00,59.1,56.5,30.04,NNW,331,3.0,5.0,91,0.05,,,0.05,WeatherTracker,2013-02-08 23:13:00,
2013-02-08 17:18:00,58.9,56.3,30.04,NNW,331,3.0,5.0,91,0.05,,,0.05,WeatherTracker,2013-02-08 23:18:00,
2013-02-08 17:23:00,58.8,56.2,30.05,NNW,331,3.0,4.0,91,0.01,,,0.05,WeatherTracker,2013-02-08 23:23:00,
2013-02-08 17:28:00,58.6,56.3,30.05,NNW,331,2.0,3.0,92,0.00,,,0.05,WeatherTracker,2013-02-08 23:28:00,
2013-02-08 17:33:00,58.5,56.2,30.05,NNW,331,3.0,3.0,92,0.00,,,0.05,WeatherTracker,2013-02-08 23:33:00,
2013-02-08 17:38:00,58.3,56.0,30.05,NNW,331,3.0,4.0,92,0.00,,,0.05,WeatherTracker,2013-02-08 23:38:00,
2013-02-08 17:43:00,58.1,55.8,30.05,NNW,331,3.0,4.0,92,0.00,,,0.05,WeatherTracker,2013-02-08 23:43:00,
2013-02-08 17:48:00,58.0,56.0,30.05,NNW,331,3.0,5.0,93,0.00,,,0.05,WeatherTracker,2013-02-08 23:48:00,
2013-02-08 17:53:00,57.9,55.9,30.06,NW,325,3.0,6.0,93,0.00,,,0.05,WeatherTracker,2013-02-08 23:53:00,
2013-02-08 17:58:00,58.0,56.3,30.06,North,355,4.0,7.0,94,0.00,,,0.05,WeatherTracker,2013-02-08 23:58:00,
2013-02-08 18:03:00,58.2,56.5,30.06,North,355,6.0,8.0,94,0.00,,,0.05,WeatherTracker,2013-02-09 00:03:00,
2013-02-08 18:08:00,58.3,56.6,30.06,North,10,6.0,10.0,94,0.00,,,0.05,WeatherTracker,2013-02-09 00:08:00,
2013-02-08 18:13:00,58.1,56.4,30.06,NNE,24,6.0,10.0,94,0.00,,,0.05,WeatherTracker,2013-02-09 00:13:00,
2013-02-08 18:19:00,58.0,56.0,30.07,NNE,19,3.0,9.0,93,0.00,,,0.05,WeatherTracker,2013-02-09 00:19:00,
2013-02-08 18:24:00,57.7,55.7,30.07,NNE,13,5.0,9.0,93,0.00,,,0.05,WeatherTracker,2013-02-09 00:24:00,
2013-02-08 18:29:00,57.6,55.6,30.07,NNE,15,6.0,9.0,93,0.00,,,0.05,WeatherTracker,2013-02-09 00:29:00,
2013-02-08 18:34:00,57.4,55.4,30.07,NNE,15,10.0,11.0,93,0.00,,,0.05,WeatherTracker,2013-02-09 00:34:00,
2013-02-08 18:39:00,57.3,55.3,30.08,NNE,13,6.0,11.0,93,0.00,,,0.05,WeatherTracker,2013-02-09 00:39:00,
2013-02-08 18:44:00,57.2,55.2,30.08,North,5,4.0,11.0,93,0.00,,,0.05,WeatherTracker,2013-02-09 00:44:00,
2013-02-08 18:49:00,56.9,54.9,30.09,North,355,6.0,9.0,93,0.00,,,0.05,WeatherTracker,2013-02-09 00:49:00,
2013-02-08 18:54:00,56.8,54.8,30.09,North,355,7.0,13.0,93,0.00,,,0.05,WeatherTracker,2013-02-09 00:54:00,
2013-02-08 18:59:00,56.7,54.7,30.09,North,355,4.0,13.0,93,0.00,,,0.05,WeatherTracker,2013-02-09 00:59:00,
2013-02-08 19:04:00,56.8,54.8,30.10,North,5,3.0,10.0,93,0.00,,,0.05,WeatherTracker,2013-02-09 01:04:00,
2013-02-08 19:09:00,56.8,55.1,30.10,North,5,8.0,10.0,94,0.00,,,0.05,WeatherTracker,2013-02-09 01:09:00,
2013-02-08 19:14:00,56.7,55.0,30.10,North,355,6.0,9.0,94,0.00,,,0.05,WeatherTracker,2013-02-09 01:14:00,
2013-02-08 19:19:00,56.6,54.9,30.10,North,5,6.0,9.0,94,0.00,,,0.05,WeatherTracker,2013-02-09 01:19:00,
2013-02-08 19:24:00,56.4,54.7,30.10,North,360,2.0,9.0,94,0.00,,,0.05,WeatherTracker,2013-02-09 01:24:00,
2013-02-08 19:29:00,56.1,54.4,30.10,North,5,5.0,7.0,94,0.00,,,0.05,WeatherTracker,2013-02-09 01:29:00,
2013-02-08 19:34:00,55.9,53.9,30.10,North,5,4.0,7.0,93,0.00,,,0.05,WeatherTracker,2013-02-09 01:34:00,
2013-02-08 19:39:00,55.8,54.1,30.11,North,5,2.0,6.0,94,0.00,,,0.05,WeatherTracker,2013-02-09 01:39:00,
2013-02-08 19:44:00,55.7,54.0,30.11,North,5,3.0,6.0,94,0.00,,,0.05,WeatherTracker,2013-02-09 01:44:00,
2013-02-08 19:49:00,55.6,53.9,30.11,NNE,16,8.0,12.0,94,0.00,,,0.05,WeatherTracker,2013-02-09 01:49:00,
2013-02-08 19:55:00,55.5,53.5,30.11,NNW,338,4.0,12.0,93,0.00,,,0.05,WeatherTracker,2013-02-09 01:55:00,
2013-02-08 20:00:00,55.5,53.5,30.11,North,10,5.0,11.0,93,0.00,,,0.05,WeatherTracker,2013-02-09 02:00:00,
2013-02-08 20:05:00,55.5,53.2,30.11,North,11,5.0,10.0,92,0.00,,,0.05,WeatherTracker,2013-02-09 02:05:00,
2013-02-08 20:10:00,55.4,53.1,30.12,NNW,342,7.0,10.0,92,0.00,,,0.05,WeatherTracker,2013-02-09 02:10:00,
2013-02-08 20:15:00,55.3,53.0,30.12,North,355,8.0,10.0,92,0.00,,,0.05,WeatherTracker,2013-02-09 02:15:00,
2013-02-08 20:20:00,55.2,52.6,30.12,North,350,6.0,10.0,91,0.00,,,0.05,WeatherTracker,2013-02-09 02:20:00,
2013-02-08 20:25:00,55.1,52.5,30.12,North,9,7.0,10.0,91,0.00,,,0.05,WeatherTracker,2013-02-09 02:25:00,
2013-02-08 20:30:00,55.0,52.4,30.13,North,355,5.0,10.0,91,0.00,,,0.05,WeatherTracker,2013-02-09 02:30:00,
2013-02-08 20:35:00,54.9,52.3,30.13,North,5,4.0,10.0,91,0.00,,,0.05,WeatherTracker,2013-02-09 02:35:00,
2013-02-08 20:40:00,54.9,52.6,30.13,North,5,5.0,9.0,92,0.00,,,0.05,WeatherTracker,2013-02-09 02:40:00,
2013-02-08 20:45:00,54.8,52.5,30.13,NNE,15,3.0,7.0,92,0.00,,,0.05,WeatherTracker,2013-02-09 02:45:00,
2013-02-08 20:50:00,54.8,52.5,30.13,NNE,28,6.0,9.0,92,0.00,,,0.05,WeatherTracker,2013-02-09 02:50:00,
2013-02-08 20:55:00,54.6,52.0,30.13,NNE,27,3.0,10.0,91,0.00,,,0.05,WeatherTracker,2013-02-09 02:55:00,
2013-02-08 21:00:00,54.5,51.9,30.13,NNE,21,5.0,10.0,91,0.00,,,0.05,WeatherTracker,2013-02-09 03:00:00,
2013-02-08 21:05:00,54.4,51.8,30.14,North,360,8.0,10.0,91,0.00,,,0.05,WeatherTracker,2013-02-09 03:05:00,
2013-02-08 21:10:00,54.2,51.3,30.14,NNE,14,3.0,10.0,90,0.00,,,0.05,WeatherTracker,2013-02-09 03:10:00,
2013-02-08 21:16:00,54.0,51.1,30.14,North,355,4.0,8.0,90,0.00,,,0.05,WeatherTracker,2013-02-09 03:16:00,
2013-02-08 21:21:00,53.9,51.3,30.14,North,355,4.0,7.0,91,0.00,,,0.05,WeatherTracker,2013-02-09 03:21:00,
2013-02-08 21:26:00,54.0,51.4,30.14,NNE,15,6.0,9.0,91,0.00,,,0.05,WeatherTracker,2013-02-09 03:26:00,
2013-02-08 21:31:00,54.1,51.5,30.14,North,355,4.0,9.0,91,0.00,,,0.05,WeatherTracker,2013-02-09 03:31:00,
2013-02-08 21:36:00,54.1,51.2,30.14,North,5,6.0,9.0,90,0.00,,,0.05,WeatherTracker,2013-02-09 03:36:00,
2013-02-08 21:41:00,54.1,51.2,30.14,North,360,5.0,9.0,90,0.00,,,0.05,WeatherTracker,2013-02-09 03:41:00,
2013-02-08 21:46:00,54.1,51.2,30.14,North,360,4.0,7.0,90,0.00,,,0.05,WeatherTracker,2013-02-09 03:46:00,
2013-02-08 21:51:00,54.1,51.2,30.14,North,360,6.0,7.0,90,0.00,,,0.05,WeatherTracker,2013-02-09 03:51:00,
2013-02-08 21:56:00,54.0,51.1,30.14,North,11,5.0,8.0,90,0.00,,,0.05,WeatherTracker,2013-02-09 03:56:00,
2013-02-08 22:01:00,54.0,50.8,30.15,North,360,3.0,8.0,89,0.00,,,0.05,WeatherTracker,2013-02-09 04:01:00,
2013-02-08 22:06:00,54.0,50.8,30.15,North,349,5.0,8.0,89,0.00,,,0.05,WeatherTracker,2013-02-09 04:06:00,
2013-02-08 22:11:00,53.9,50.7,30.15,NNW,346,4.0,8.0,89,0.00,,,0.05,WeatherTracker,2013-02-09 04:11:00,
2013-02-08 22:16:00,53.9,50.7,30.15,North,355,7.0,7.0,89,0.00,,,0.05,WeatherTracker,2013-02-09 04:16:00,
2013-02-08 22:21:00,53.8,50.3,30.15,North,355,4.0,9.0,88,0.00,,,0.05,WeatherTracker,2013-02-09 04:21:00,
2013-02-08 22:26:00,53.7,50.2,30.16,North,355,6.0,9.0,88,0.00,,,0.05,WeatherTracker,2013-02-09 04:26:00,
2013-02-08 22:31:00,53.6,50.1,30.16,North,5,5.0,11.0,88,0.00,,,0.05,WeatherTracker,2013-02-09 04:31:00,
2013-02-08 22:36:00,53.5,49.7,30.15,NNE,16,5.0,11.0,87,0.00,,,0.05,WeatherTracker,2013-02-09 04:36:00,
2013-02-08 22:41:00,53.4,49.6,30.16,NNE,24,5.0,10.0,87,0.00,,,0.05,WeatherTracker,2013-02-09 04:41:00,
2013-02-08 22:47:00,53.3,49.5,30.16,North,5,8.0,10.0,87,0.00,,,0.05,WeatherTracker,2013-02-09 04:47:00,
2013-02-08 22:52:00,53.1,49.3,30.16,North,5,6.0,9.0,87,0.00,,,0.05,WeatherTracker,2013-02-09 04:52:00,
2013-02-08 22:57:00,52.9,49.1,30.16,NNE,13,5.0,12.0,87,0.00,,,0.05,WeatherTracker,2013-02-09 04:57:00,
2013-02-08 23:00:00,52.8,49.0,30.16,North,5,4.0,12.0,87,0.00,,,0.05,WeatherTracker,2013-02-09 05:00:00,
2013-02-08 23:01:00,52.8,49.0,30.16,NNE,32,3.0,12.0,87,0.00,,,0.05,WeatherTracker,2013-02-09 05:01:00,
2013-02-08 23:06:00,52.7,48.9,30.16,NNE,24,6.0,9.0,87,0.00,,,0.05,WeatherTracker,2013-02-09 05:06:00,
2013-02-08 23:11:00,52.4,48.6,30.16,North,360,8.0,13.0,87,0.00,,,0.05,WeatherTracker,2013-02-09 05:11:00,
2013-02-08 23:16:00,52.1,48.3,30.16,North,9,4.0,13.0,87,0.00,,,0.05,WeatherTracker,2013-02-09 05:16:00,
2013-02-08 23:21:00,51.8,48.1,30.17,NNW,346,5.0,10.0,87,0.00,,,0.05,WeatherTracker,2013-02-09 05:21:00,
2013-02-08 23:26:00,51.4,47.7,30.16,North,5,6.0,9.0,87,0.00,,,0.05,WeatherTracker,2013-02-09 05:26:00,
2013-02-08 23:31:00,50.9,47.2,30.16,NNE,12,7.0,9.0,87,0.00,,,0.05,WeatherTracker,2013-02-09 05:31:00,
2013-02-08 23:36:00,50.4,46.7,30.16,North,5,6.0,9.0,87,0.00,,,0.05,WeatherTracker,2013-02-09 05:36:00,
2013-02-08 23:41:00,50.0,46.6,30.16,NNE,13,3.0,7.0,88,0.00,,,0.05,WeatherTracker,2013-02-09 05:41:00,
2013-02-08 23:46:00,49.7,46.3,30.16,North,5,4.0,7.0,88,0.00,,,0.05,WeatherTracker,2013-02-09 05:46:00,
2013-02-08 23:52:00,49.4,46.3,30.16,NNW,330,5.0,7.0,89,0.00,,,0.05,WeatherTracker,2013-02-09 05:52:00,
2013-02-08 23:57:00,49.1,46.0,30.16,North,350,4.0,7.0,89,0.00,,,0.05,WeatherTracker,2013-02-09 05:57:00,